Regional Weather Roundup
Issued by NWS

Home | Current Version | Previous Version | Text Only | Print | Product List | Glossary Off
Versions: 1 2 3 4 5 6 7 8 9 10 11 12 13 14 15 16 17 18 19 20 21 22 23 24 25 26 27 28 29 30 31 32 33 34 35 36 37 38 39 40 41 42 43 44 45 46 47 48 49 50

000
ASUS43 KTOP 211359
RWRKS

WEATHER ROUNDUP FOR KANSAS
NATIONAL WEATHER SERVICE GOODLAND KS
900 AM CDT TUE OCT 21 2014

NOTE:  "FAIR" INDICATES FEW OR NO CLOUDS BELOW 12,000 FEET WITH NO
SIGNIFICANT WEATHER AND/OR OBSTRUCTIONS TO VISIBILITY.

KSZ001>006-013>018-027>032-041>047-211500-
NORTHWEST KANSAS

CITY           SKY/WX    TMP DP  RH WIND       PRES   REMARKS
GOODLAND       FOG       54  54 100 S16       30.07S VSB 1/4
HAYS           MOSUNNY   46  41  81 CALM      30.09R
HILL CITY      SUNNY     44  40  85 CALM      30.09R
RUSSELL        MOSUNNY   52  47  83 SE5       30.08R
$$

KSZ061>065-074>080-084>089-211500-
SOUTHWEST KANSAS

CITY           SKY/WX    TMP DP  RH WIND       PRES   REMARKS
DODGE CITY     FOG       55  54  96 SE8       30.09R VSB<1/4
ELKHART          N/A     53  47  80 SW7         N/A
GARDEN CITY    FOG       52  51  97 S3        30.08R VSB<1/4
GREAT BEND     SUNNY     52  45  76 NE3       30.10R
LIBERAL        CLOUDY    54  48  82 NW3       30.10R VSB<1/4
$$

KSZ066>073-081>083-090>101-211500-
SOUTHEAST KANSAS

CITY           SKY/WX    TMP DP  RH WIND       PRES   REMARKS
CHANUTE        SUNNY     54  52  93 E3        30.13R
COFFEYVILLE    FOG       52  52 100 CALM      30.12R VSB<1/4
HUTCHINSON     MOSUNNY   58  54  86 SE7       30.11R
NEWTON         SUNNY     55  46  71 SE6       30.13R
PARSONS        SUNNY     55  54  96 CALM      30.13R
WICHITA INTL   PTSUNNY   60  55  83 E7        30.10R
WICHITA JABRA  SUNNY     54  50  86 CALM      30.11R
WINFIELD       MOSUNNY   57  56  96 E6        30.12R
$$

KSZ007>012-019>026-033>040-048>060-102>105-211500-
NORTHEAST KANSAS

CITY           SKY/WX    TMP DP  RH WIND       PRES   REMARKS
CONCORDIA      SUNNY     46  43  89 CALM      30.11R
EMPORIA        SUNNY     50  47  89 E3        30.12R
LAWRENCE       SUNNY     44  41  89 CALM      30.14R
MANHATTAN      SUNNY     46  44  93 CALM      30.13R
OLATHE IND     SUNNY     51  47  86 CALM      30.14R
OLATHE EXE     SUNNY     54  47  77 CALM      30.13R
SALINA         SUNNY     51  45  79 CALM      30.11R
TOPEKA BILLARD SUNNY     44  44 100 CALM      30.13S
TOPEKA FORBES  SUNNY     46  44  93 CALM      30.12R
$$


USA.gov is the U.S. government's official web portal to all federal, state and local government web resources and services.